{"data":{"norad_id":66000,"epoch":"2026-09-20T05:36:24.631488Z","epoch_age_seconds":163526,"freshness":"FRESH","line1":"1 66000U 25231F   26263.23361842 -.00000096  00000+0  60460-4 0  9998","line2":"2 66000  50.0047 194.7735 0000405  60.5132 299.5781 13.29327489 45538","mean_motion":13.29327489,"eccentricity":4.05e-5,"inclination_deg":50.0047,"raan_deg":194.7735,"arg_perigee_deg":60.5132,"mean_anomaly_deg":299.5781,"bstar":6.046e-5,"rev_number":4553,"period_min":108.32545117105,"perigee_km":1148.9960895461,"apogee_km":1149.6058120202,"semimajor_km":7527.4379507831,"source":"CELESTRAK","updated_at":"2026-09-21T09:00:15.693634Z"}}